Location: Newark
(21.1200°N, 73.4000°E)
Time: 14:57:56
(UTC+00:00)

Courier 1B Rocket - Pass Details

Date: 27 January 2020
Orbit: 920 x 1202 km, 28.2° (Epoch: 22 February)

Event Time Altitude Azimuth Distance (km) Brightness Sun altitude
Rises 03:21:05 0° 228° (SW) 4,088 8.1 19.5°
Reaches altitude 10° 03:24:06 10° 223° (SW) 3,117 7.6 20.1°
Maximum altitude 03:31:25 45° 152° (SSE) 1,536 7.2 21.6°
Drops below altitude 10° 03:38:27 10° 82° (E) 2,992 8.5 23.0°
Sets 03:41:16 0° 76° (ENE) 3,912 8.8 23.5°
